| time (UTC) | temp C | wind direction | speed KPH | gust KPH | rain 1hr cm | rain 24hr cm | rain mn cm | humidity % | barometer mb |
| 20260509000025 | 16 | 176 | 0.0 | 0.0 | 0.00 | 0.00 | 0.00 | 63 | 1012.6 |
| 20260508234527 | 16 | 176 | 0.0 | 0.0 | 0.00 | 0.00 | 0.00 | 63 | 1012.5 |
| 20260508233025 | 17 | 176 | 0.0 | 0.0 | 0.00 | 0.00 | 0.00 | 63 | 1012.5 |
| 20260508231525 | 17 | 176 | 0.0 | 0.0 | 0.00 | 0.00 | 0.00 | 64 | 1012.5 |
| 20260508230024 | 17 | 176 | 0.0 | 0.0 | 0.00 | 0.00 | 0.00 | 64 | 1012.6 |
| 20260508224522 | 17 | 176 | 0.0 | 0.0 | 0.00 | 0.00 | 0.00 | 61 | 1012.7 |
| 20260508223035 | 17 | 176 | 0.0 | 0.0 | 0.00 | 0.00 | 0.00 | 56 | 1012.8 |
| 20260508221520 | 18 | 176 | 0.0 | 0.0 | 0.00 | 0.00 | 0.00 | 52 | 1012.8 |
| 20260508220022 | 18 | 176 | 0.0 | 0.0 | 0.00 | 0.00 | 0.00 | 52 | 1012.9 |
| 20260508214519 | 18 | 176 | 0.0 | 0.0 | 0.00 | 0.00 | 0.00 | 50 | 1012.9 |
| 20260508213020 | 18 | 176 | 0.0 | 0.0 | 0.00 | 0.00 | 0.00 | 50 | 1013.0 |
| 20260508211517 | 18 | 176 | 0.0 | 0.0 | 0.00 | 0.00 | 0.00 | 54 | 1012.8 |
| 20260508210015 | 18 | 176 | 0.0 | 0.0 | 0.00 | 0.00 | 0.00 | 51 | 1012.9 |
| 20260508204522 | 18 | 174 | 0.0 | 0.0 | 0.00 | 0.00 | 0.00 | 41 | 1012.9 |
| 20260508203013 | 19 | 174 | 0.0 | 0.0 | 0.00 | 0.00 | 0.00 | 50 | 1013.1 |
| 20260508201512 | 20 | 174 | 0.0 | 0.0 | 0.00 | 0.00 | 0.00 | 50 | 1013.3 |
| 20260508200009 | 20 | 186 | 0.0 | 0.0 | 0.00 | 0.00 | 0.00 | 46 | 1013.5 |
| 20260508194506 | 20 | 191 | 0.0 | 0.0 | 0.00 | 0.00 | 0.00 | 49 | 1013.9 |
| 20260508193003 | 20 | 197 | 0.0 | 0.0 | 0.00 | 0.00 | 0.00 | 48 | 1014.5 |
| 20260508191500 | 20 | 196 | 0.0 | 0.0 | 0.00 | 0.00 | 0.00 | 41 | 1014.9 |
| 20260508190100 | 20 | 206 | 0.0 | 0.0 | 0.00 | 0.00 | 0.00 | 38 | 1014.9 |
| 20260508184608 | 20 | 46 | 0.0 | 0.0 | 0.00 | 0.00 | 0.00 | 44 | 1015.3 |
| 20260508183056 | 20 | 47 | 0.0 | 0.0 | 0.00 | 0.00 | 0.00 | 38 | 1015.4 |
| 20260508181601 | 20 | 192 | 0.0 | 0.0 | 0.00 | 0.00 | 0.00 | 35 | 1015.6 |
| 20260508180052 | 20 | 63 | 0.0 | 0.0 | 0.00 | 0.00 | 0.00 | 37 | 1015.7 |
| 20260508174555 | 20 | 152 | 0.0 | 0.0 | 0.00 | 0.00 | 0.00 | 40 | 1015.9 |
| 20260508173048 | 19 | 171 | 0.0 | 0.0 | 0.00 | 0.00 | 0.00 | 41 | 1016.1 |
| 20260508171547 | 19 | 112 | 0.0 | 0.0 | 0.00 | 0.00 | 0.00 | 40 | 1016.4 |
| 20260508170045 | 18 | 202 | 0.0 | 0.0 | 0.00 | 0.00 | 0.00 | 38 | 1016.7 |
| 20260508164543 | 18 | 202 | 0.0 | 0.0 | 0.00 | 0.00 | 0.00 | 41 | 1017.0 |
| 20260508163047 | 18 | 196 | 0.0 | 0.0 | 0.00 | 0.00 | 0.00 | 42 | 1017.4 |
| 20260508161541 | 18 | 197 | 0.0 | 0.0 | 0.00 | 0.00 | 0.00 | 46 | 1017.4 |
| 20260508160057 | 17 | 196 | 0.0 | 0.0 | 0.00 | 0.00 | 0.00 | 46 | 1017.7 |
| 20260508154534 | 17 | 196 | 0.0 | 0.0 | 0.00 | 0.00 | 0.00 | 53 | 1017.8 |
| 20260508153042 | 17 | 349 | 0.0 | 0.0 | 0.00 | 0.00 | 0.00 | 49 | 1018.1 |
| 20260508151530 | 16 | 81 | 0.0 | 0.0 | 0.00 | 0.00 | 0.00 | 53 | 1018.3 |
| 20260508150032 | 16 | 232 | 0.0 | 0.0 | 0.00 | 0.00 | 0.00 | 53 | 1018.4 |
| 20260508144523 | 15 | 311 | 0.0 | 0.0 | 0.00 | 0.00 | 0.00 | 54 | 1018.4 |
| 20260508143027 | 15 | 311 | 0.0 | 0.0 | 0.00 | 0.00 | 0.00 | 64 | 1018.5 |
| 20260508141517 | 13 | 35 | 0.0 | 0.0 | 0.00 | 0.00 | 0.00 | 71 | 1018.5 |
| 20260508140017 | 12 | 35 | 0.0 | 0.0 | 0.00 | 0.00 | 0.00 | 83 | 1018.5 |
| 20260508134515 | 11 | 35 | 0.0 | 0.0 | 0.00 | 0.00 | 0.00 | 94 | 1018.5 |
| 20260508133011 | 10 | 35 | 0.0 | 0.0 | 0.00 | 0.00 | 0.00 | 96 | 1018.5 |
| 20260508131559 | 9 | 35 | 0.0 | 0.0 | 0.00 | 0.00 | 0.00 | 97 | 1018.5 |
| 20260508130057 | 7 | 35 | 0.0 | 0.0 | 0.00 | 0.00 | 0.00 | 97 | 1018.4 |
| 20260508124552 | 6 | 35 | 0.0 | 0.0 | 0.00 | 0.00 | 0.00 | 97 | 1018.4 |
| 20260508123052 | 6 | 35 | 0.0 | 0.0 | 0.00 | 0.00 | 0.00 | 97 | 1018.5 |
| 20260508121604 | 5 | 35 | 0.0 | 0.0 | 0.00 | 0.00 | 0.00 | 97 | 1018.4 |
| 20260508120049 | 4 | 35 | 0.0 | 0.0 | 0.00 | 0.00 | 0.00 | 97 | 1018.2 |
| 20260508114547 | 3 | 35 | 0.0 | 0.0 | 0.00 | 0.00 | 0.00 | 96 | 1018.1 |
| 20260508113046 | 3 | 35 | 0.0 | 0.0 | 0.00 | 0.00 | 0.00 | 95 | 1017.8 |
| 20260508111541 | 2 | 35 | 0.0 | 0.0 | 0.00 | 0.00 | 0.00 | 95 | 1017.5 |
| 20260508110049 | 3 | 35 | 0.0 | 0.0 | 0.00 | 0.00 | 0.00 | 95 | 1017.4 |
| 20260508104536 | 3 | 35 | 0.0 | 0.0 | 0.00 | 0.00 | 0.00 | 95 | 1017.1 |
| 20260508103037 | 3 | 35 | 0.0 | 0.0 | 0.00 | 0.00 | 0.00 | 94 | 1017.0 |
| 20260508101536 | 3 | 35 | 0.0 | 0.0 | 0.00 | 0.00 | 0.00 | 95 | 1017.0 |
| 20260508100033 | 3 | 35 | 0.0 | 0.0 | 0.00 | 0.03 | 0.00 | 94 | 1016.8 |
| 20260508094529 | 3 | 35 | 0.0 | 0.0 | 0.00 | 0.03 | 0.00 | 95 | 1016.7 |
| 20260508093027 | 3 | 35 | 0.0 | 0.0 | 0.00 | 0.03 | 0.00 | 94 | 1016.6 |
| 20260508091525 | 4 | 35 | 0.0 | 0.0 | 0.00 | 0.03 | 0.00 | 95 | 1016.4 |
| 20260508090023 | 4 | 35 | 0.0 | 0.0 | 0.00 | 0.03 | 0.00 | 94 | 1016.4 |
| 20260508084523 | 4 | 35 | 0.0 | 0.0 | 0.00 | 0.03 | 0.00 | 95 | 1016.3 |
| 20260508083101 | 5 | 35 | 0.0 | 0.0 | 0.00 | 0.03 | 0.00 | 95 | 1016.2 |
| 20260508081518 | 5 | 35 | 0.0 | 0.0 | 0.00 | 0.03 | 0.00 | 94 | 1016.2 |
| 20260508080021 | 5 | 35 | 0.0 | 0.0 | 0.00 | 0.05 | 0.00 | 94 | 1016.2 |
| 20260508074516 | 5 | 35 | 0.0 | 0.0 | 0.00 | 0.05 | 0.00 | 94 | 1016.4 |
| 20260508073017 | 5 | 35 | 0.0 | 0.0 | 0.00 | 0.05 | 0.00 | 94 | 1016.4 |
| 20260508071512 | 5 | 35 | 0.0 | 0.0 | 0.00 | 0.05 | 0.00 | 94 | 1016.3 |
| 20260508070013 | 6 | 35 | 0.0 | 0.0 | 0.00 | 0.05 | 0.00 | 94 | 1016.4 |
| 20260508064534 | 6 | 35 | 0.0 | 0.0 | 0.00 | 0.05 | 0.00 | 94 | 1016.2 |
| 20260508063008 | 6 | 35 | 0.0 | 0.0 | 0.00 | 0.05 | 0.00 | 94 | 1016.3 |
| 20260508061507 | 6 | 35 | 0.0 | 0.0 | 0.00 | 0.05 | 0.00 | 94 | 1016.4 |
| 20260508060005 | 6 | 35 | 0.0 | 0.0 | 0.00 | 0.05 | 0.00 | 94 | 1016.5 |
| 20260508054504 | 6 | 35 | 0.0 | 0.0 | 0.00 | 0.05 | 0.00 | 94 | 1016.3 |
| 20260508053003 | 6 | 35 | 0.0 | 0.0 | 0.00 | 0.05 | 0.00 | 94 | 1016.3 |
| 20260508051502 | 7 | 35 | 0.0 | 0.0 | 0.00 | 0.05 | 0.00 | 94 | 1016.5 |
| 20260508050101 | 7 | 35 | 0.0 | 0.0 | 0.00 | 0.05 | 0.00 | 94 | 1016.3 |
| 20260508044559 | 7 | 35 | 0.0 | 0.0 | 0.00 | 0.05 | 0.00 | 94 | 1016.2 |
| 20260508043055 | 7 | 35 | 0.0 | 0.0 | 0.00 | 0.05 | 0.00 | 94 | 1016.0 |
| 20260508041558 | 7 | 35 | 0.0 | 0.0 | 0.00 | 0.05 | 0.00 | 94 | 1015.8 |
| 20260508040051 | 7 | 35 | 0.0 | 0.0 | 0.00 | 0.08 | 0.05 | 93 | 1015.7 |
| 20260508034554 | 8 | 35 | 0.0 | 0.0 | 0.00 | 0.08 | 0.05 | 93 | 1015.6 |
| 20260508033046 | 8 | 35 | 0.0 | 0.0 | 0.00 | 0.08 | 0.05 | 93 | 1015.6 |
| 20260508031544 | 8 | 35 | 0.0 | 0.0 | 0.00 | 0.08 | 0.05 | 93 | 1015.5 |
| 20260508030056 | 8 | 35 | 0.0 | 0.0 | 0.00 | 0.08 | 0.05 | 93 | 1015.3 |
| 20260508024552 | 8 | 35 | 0.0 | 0.0 | 0.00 | 0.08 | 0.05 | 93 | 1015.4 |
| 20260508023040 | 9 | 35 | 0.0 | 0.0 | 0.00 | 0.08 | 0.05 | 92 | 1015.4 |
| 20260508021536 | 9 | 35 | 0.0 | 0.0 | 0.00 | 0.08 | 0.05 | 92 | 1015.0 |
| 20260508020033 | 10 | 35 | 0.0 | 0.0 | 0.00 | 0.10 | 0.05 | 91 | 1014.8 |
| 20260508014534 | 10 | 35 | 0.0 | 0.0 | 0.00 | 0.10 | 0.05 | 91 | 1014.6 |
| 20260508013026 | 10 | 35 | 0.0 | 0.0 | 0.00 | 0.10 | 0.05 | 90 | 1014.3 |
| 20260508011528 | 11 | 35 | 0.0 | 0.0 | 0.00 | 0.10 | 0.05 | 90 | 1013.8 |
| 20260508010025 | 11 | 35 | 0.0 | 0.0 | 0.00 | 0.13 | 0.05 | 88 | 1013.6 |
| 20260508004517 | 12 | 35 | 0.0 | 0.0 | 0.00 | 0.13 | 0.05 | 88 | 1013.5 |
| 20260508003017 | 12 | 35 | 0.0 | 0.0 | 0.00 | 0.13 | 0.05 | 88 | 1013.3 |
| 20260508001517 | 12 | 35 | 0.0 | 0.0 | 0.00 | 0.13 | 0.05 | 87 | 1013.1 |